Tracking 33199 objects as of 16-Feb-2026
HD Live streaming from Space Station
objects crossing your sky now

NOAA 17 DEB

Track NOAA 17 DEB now!
10-day predictions


NORAD ID: 48717
Int'l Code: 2002-032BB
Perigee: 714.8 km
Apogee: 722.2 km
Inclination: 98.8 °
Period: 99.0 minutes
Semi major axis: 7089 km
RCS: Unknown
Launch date: June 24, 2002
Source: United States (US)
Launch site: AIR FORCE WESTERN TEST RANGE (AFWTR)

Note: This is SATELLITE DEBRIS
Your satellite tracking list
Your tracking list is empty




NASA's NSSDC Master Catalog

Two Line Element Set (TLE):
1 48717U 02032BA  26046.41552919  .00011640  00000-0  27455-2 0  9995
2 48717  98.7655  35.3398 0005207 268.8884  91.1715 14.54385686257534
Source of the keplerian elements: AFSPC